Location: The Saddle
(36.8333°N, 80.3417°W)
Time: 08:23:20
(UTC-05:00)

Vanguard 2 Rocket - Pass Details

Date: 13 December 2023
Orbit: 555 x 3309 km, 32.9° (Epoch: 02 March)

Event Time Altitude Azimuth Distance (km) Brightness Sun altitude
Rises 17:24:36 0° 281° (W) 6,563 12.2 -4.2°
Reaches altitude 10° 17:28:40 10° 278° (W) 5,794 12.0 -4.9°
Maximum altitude 17:47:13 58° 206° (SSW) 3,656 10.2 -8.3°
Drops below altitude 10° 18:05:13 10° 133° (SE) 5,622 10.7 -11.7°
Sets 18:09:06 0° 129° (SE) 6,365 10.9 -12.4°
